Weather History for KGUS - March, 2012

Change the Weather History Date:

Wednesday, March 21, 2012

  Actual Average Record
Temperature  
Mean Temperature 72 °F -  
Max Temperature 86 °F 47 °F 86 °F (2012)
Min Temperature 59 °F 30 °F 14 °F (2013)
Cooling Degree Days 7    
Growing Degree Days 22 (Base 50)    
Moisture  
Dew Point 53 °F    
Average Humidity 61    
Maximum Humidity 100    
Minimum Humidity 22    
Precipitation  
Precipitation 0.00 in - - ()
Sea Level Pressure  
Sea Level Pressure 30.10 in    
Wind  
Wind Speed 8 mph (SSE)    
Max Wind Speed 15 mph    
Max Gust Speed 21 mph    
Visibility 10 miles    
Events      
Averages and records for this station are not official NWS values.
T = Trace of Precipitation, MM = Missing Value Source: NWS Daily Summary

Daily Weather History Graph

Daily Weather History Graph

Search for Another Location

Airport or City:

Trip Planner

Search our weather history database for the weather conditions in past years. The results will help you decide how hot, cold, wet, or windy it might be!

Date:

Astronomy

Mar. 21, 2012 Rise Set
Actual Time 7:45 AM EDT 7:58 PM EDT
Civil Twilight 7:18 AM EDT 8:25 PM EDT
Nautical Twilight 6:46 AM EDT 8:57 PM EDT
Astronomical Twilight 6:13 AM EDT 9:30 PM EDT
Moon 6:56 AM EDT (3/21) 7:24 PM EDT (3/21)
Length of Visible Light 13h 07m
Length of Day
12h 12m
Waning Crescent, 1% of the Moon is Illuminated
Mar 21
Waning Crescent
Mar 22
New
Mar 30
First Quarter
Apr 6
Full
Apr 13
Last Quarter

Hourly Weather History & Observations

Time (EDT) Temp. Dew Point Humidity Pressure Visibility Wind Dir Wind Speed Gust Speed Precip Events Conditions
12:55 AM 63.1 °F 59.0 °F 86% 30.10 in 10.0 mi ESE 8.1 mph - N/A   Clear
1:55 AM 62.4 °F 59.5 °F 90% 30.10 in 10.0 mi SE 6.9 mph - N/A   Clear
2:55 AM 62.1 °F 60.4 °F 94% 30.10 in 10.0 mi ESE 8.1 mph - N/A   Clear
3:55 AM 61.0 °F 61.0 °F 100% 30.09 in 10.0 mi ESE 6.9 mph - N/A   Clear
4:55 AM 61.2 °F 60.1 °F 96% 30.09 in 10.0 mi SE 6.9 mph - N/A   Clear
5:55 AM 59.9 °F 59.7 °F 99% 30.09 in 10.0 mi SE 8.1 mph - N/A   Clear
6:55 AM 60.1 °F 59.7 °F 99% 30.10 in 10.0 mi ESE 9.2 mph - N/A   Clear
7:55 AM 59.4 °F 59.2 °F 99% 30.12 in 10.0 mi SE 9.2 mph - N/A   Clear
8:55 AM 63.5 °F 59.9 °F 88% 30.14 in 10.0 mi SSE 6.9 mph - N/A   Clear
9:55 AM 69.1 °F 58.1 °F 68% 30.15 in 10.0 mi South 8.1 mph - N/A   Clear
10:30 AM 71.6 °F 57.2 °F 60% 30.15 in 10.0 mi South 6.9 mph - N/A   Clear
10:55 AM 75.6 °F 54.3 °F 48% 30.15 in 10.0 mi SSW 12.7 mph - N/A   Clear
11:55 AM 79.9 °F 48.6 °F 33% 30.14 in 10.0 mi SW 12.7 mph - N/A   Clear
12:55 PM 82.4 °F 45.3 °F 27% 30.12 in 10.0 mi WSW 13.8 mph - N/A   Clear
1:55 PM 83.5 °F 43.9 °F 25% 30.11 in 10.0 mi SSE 6.9 mph - N/A   Clear
2:55 PM 84.9 °F 43.3 °F 23% 30.07 in 10.0 mi South 6.9 mph - N/A   Clear
3:55 PM 85.8 °F 42.8 °F 22% 30.06 in 10.0 mi South 9.2 mph 20.7 mph N/A   Clear
4:55 PM 83.7 °F 44.2 °F 25% 30.05 in 10.0 mi SSE 15.0 mph - N/A   Partly Cloudy
5:55 PM 84.2 °F 45.9 °F 26% 30.04 in 10.0 mi South 11.5 mph - N/A   Clear
6:55 PM 81.9 °F 47.3 °F 30% 30.05 in 10.0 mi SSE 10.4 mph - N/A   Clear
7:55 PM 75.6 °F 51.1 °F 42% 30.06 in 10.0 mi SSE 6.9 mph - N/A   Clear
8:55 PM 72.0 °F 52.5 °F 50% 30.07 in 10.0 mi SSE 8.1 mph - N/A   Clear
9:55 PM 71.1 °F 52.5 °F 52% 30.08 in 10.0 mi SSE 5.8 mph - N/A   Clear
10:55 PM 68.4 °F 54.9 °F 62% 30.08 in 10.0 mi SSE 6.9 mph - N/A   Clear
11:55 PM 66.0 °F 56.8 °F 72% 30.07 in 10.0 mi ESE 6.9 mph - N/A   Clear